DW0217 Weather Reports


Display with metric or nautical units.
time (UTC)temp
F
wind
direction
speed
MPH
gust
MPH
rain 1hr
in
rain 24hr
in
rain mn
in
humidity
%
barometer
mb
20201124090228 2 278 1.0 0.0 0.00 0.00 0.00 88 1018.3
20201124084741 2 336 1.0 0.0 0.00 0.00 0.00 88 1018.3
20201124083127 3 337 3.0 0.0 0.00 0.00 0.00 88 1018.4
20201124081809 4 22 1.0 0.0 0.00 0.00 0.00 89 1018.5
20201124080201 5 20 4.0 0.0 0.00 0.00 0.00 89 1018.6
20201124074635 5 10 1.0 0.0 0.00 0.00 0.00 89 1018.7
20201124073119 6 323 1.0 0.0 0.00 0.00 0.00 89 1018.7
20201124071548 6 245 2.0 0.0 0.00 0.00 0.00 88 1019.0
20201124070032 6 235 1.0 0.0 0.00 0.00 0.00 88 1019.0
20201124064545 6 235 3.0 0.0 0.00 0.00 0.00 89 1018.9
20201124063045 5 221 5.0 0.0 0.00 0.00 0.00 88 1019.0
20201124061532 6 171 0.0 0.0 0.00 0.00 0.00 88 1018.6
20201124060050 6 171 0.0 0.0 0.00 0.00 0.00 87 1018.5
20201124054520 6 171 0.0 0.0 0.00 0.00 0.00 87 1018.3
20201124053230 6 171 1.0 0.0 0.00 0.00 0.00 87 1018.4
20201124051721 7 171 3.0 0.0 0.00 0.00 0.00 87 1018.4
20201124050140 8 351 5.0 0.0 0.00 0.00 0.00 88 1018.2
20201124044609 7 332 4.0 0.0 0.00 0.00 0.00 86 1018.3
20201124043208 9 319 6.0 0.0 0.00 0.00 0.00 87 1018.2
20201124041559 9 319 6.0 0.0 0.00 0.00 0.00 86 1018.1
20201124040048 11 325 6.0 0.0 0.00 0.00 0.00 84 1018.3
20201124034612 14 319 6.0 0.0 0.00 0.00 0.00 85 1018.2
20201124033037 15 289 8.0 0.0 0.00 0.00 0.00 84 1018.2
20201124031555 15 275 9.0 0.0 0.00 0.00 0.00 85 1018.1
20201124030122 14 281 8.0 0.0 0.00 0.00 0.00 86 1017.9
20201124024611 14 279 6.0 0.0 0.00 0.00 0.00 85 1018.0
20201124023036 14 278 2.0 0.0 0.00 0.00 0.00 86 1018.2
20201124021524 15 278 4.0 0.0 0.00 0.00 0.00 86 1018.0
20201124020248 15 306 1.0 0.0 0.00 0.00 0.00 86 1017.8
20201124014710 16 312 7.0 0.0 0.00 0.00 0.00 86 1017.6
20201124013220 17 315 7.0 0.0 0.00 0.00 0.00 86 1017.1
20201124011725 17 323 8.0 0.0 0.00 0.00 0.00 86 1016.9
20201124010227 18 306 6.0 0.0 0.00 0.00 0.00 86 1016.4
20201124004624 20 317 6.0 0.0 0.00 0.00 0.00 86 1016.2
20201124003127 20 348 9.0 0.0 0.00 0.00 0.00 87 1015.7
20201124001728 19 303 12.0 0.0 0.00 0.00 0.00 87 1015.2
20201124000115 20 308 13.0 0.0 0.00 0.00 0.00 86 1015.0
20201123234531 20 300 17.0 0.0 0.00 0.00 0.00 85 1014.9
20201123233042 21 299 15.0 0.0 0.00 0.00 0.00 85 1014.9
20201123231524 21 309 14.0 0.0 0.00 0.00 0.00 85 1014.5
20201123230031 21 292 12.0 0.0 0.00 0.00 0.00 85 1014.3
20201123223144 22 312 14.0 0.0 0.00 0.00 0.00 84 1013.8
20201123221701 22 292 18.0 0.0 0.00 0.00 0.00 84 1013.6
20201123220145 22 310 19.0 0.0 0.00 0.00 0.00 83 1013.5
20201123214659 23 302 19.0 0.0 0.00 0.00 0.00 82 1013.3
20201123213132 24 300 16.0 0.0 0.00 0.00 0.00 82 1013.1
20201123211633 24 313 16.0 0.0 0.00 0.00 0.00 82 1013.0
20201123210130 24 306 19.0 0.0 0.00 0.00 0.00 83 1012.9
20201123204545 24 316 18.0 0.0 0.00 0.00 0.00 81 1012.8
20201123203059 24 306 20.0 0.0 0.00 0.00 0.00 80 1012.6
20201123201529 23 309 20.0 0.0 0.00 0.00 0.00 81 1012.6
20201123200106 24 307 22.0 0.0 0.00 0.00 0.00 80 1012.4
20201123194525 23 300 21.0 0.0 0.00 0.00 0.00 81 1012.5
20201123193012 23 294 22.0 0.0 0.00 0.00 0.00 82 1012.4
20201123191651 23 288 20.0 0.0 0.00 0.00 0.00 82 1012.4
20201123190215 23 296 23.0 0.0 0.00 0.00 0.00 81 1012.4
20201123184747 23 290 21.0 0.0 0.00 0.00 0.00 82 1012.5
20201123183129 23 288 19.0 0.0 0.00 0.00 0.00 81 1012.7
20201123181646 24 294 15.0 0.0 0.00 0.00 0.00 82 1012.8
20201123180104 24 297 12.0 0.0 0.00 0.00 0.00 81 1013.1
20201123174606 24 288 11.0 0.0 0.00 0.00 0.00 82 1013.3
20201123173040 20 275 9.0 0.0 0.00 0.00 0.00 85 1013.1
20201123171538 17 303 7.0 0.0 0.00 0.00 0.00 86 1013.1
20201123170055 14 296 7.0 0.0 0.00 0.00 0.00 87 1013.0
20201123164551 14 324 5.0 0.0 0.00 0.00 0.00 88 1013.0
20201123163045 14 304 5.0 0.0 0.00 0.00 0.00 88 1013.0
20201123161533 13 290 3.0 0.0 0.00 0.00 0.00 88 1012.9
20201123154658 12 302 6.0 0.0 0.00 0.00 0.00 88 1013.3
20201123153140 12 302 7.0 0.0 0.00 0.00 0.00 89 1013.3
20201123151730 11 298 6.0 0.0 0.00 0.00 0.00 89 1013.0
20201123150240 10 348 3.0 0.0 0.00 0.00 0.00 89 1012.9
20201123144709 9 5 1.0 0.0 0.00 0.00 0.00 88 1012.8
20201123143037 9 13 3.0 0.0 0.00 0.00 0.00 88 1012.8
20201123141539 8 273 0.0 0.0 0.00 0.00 0.00 88 1012.6
20201123140100 8 273 0.0 0.0 0.00 0.00 0.00 88 1012.7
20201123134525 8 273 1.0 0.0 0.00 0.00 0.00 88 1012.7
20201123133037 8 273 1.0 0.0 0.00 0.00 0.00 88 1012.8
20201123131528 8 272 2.0 0.0 0.00 0.00 0.00 88 1012.8
20201123130023 8 319 3.0 0.0 0.00 0.00 0.00 87 1012.9
20201123124516 9 326 4.0 0.0 0.00 0.00 0.00 87 1012.8
20201123123027 9 330 6.0 0.0 0.00 0.00 0.00 88 1012.9
20201123121514 10 313 5.0 0.0 0.00 0.00 0.00 88 1013.0
20201123115530 10 292 3.0 0.0 0.00 0.00 0.00 89 1013.0
20201123113223 10 305 3.0 0.0 0.00 0.00 0.00 88 1012.9
20201123111616 10 304 3.0 0.0 0.00 0.00 0.00 88 1013.1
20201123110157 9 305 4.0 0.0 0.00 0.00 0.00 89 1013.0
20201123104650 9 280 2.0 0.0 0.00 0.00 0.00 88 1013.0
20201123103139 9 267 3.0 0.0 0.00 0.00 0.00 88 1013.1
20201123101725 11 336 4.0 0.0 0.00 0.00 0.00 89 1013.4
20201123100103 11 345 4.0 0.0 0.00 0.00 0.00 89 1013.3
20201123094641 10 14 3.0 0.0 0.00 0.00 0.00 90 1013.3
20201123093255 9 350 3.0 0.0 0.00 0.00 0.00 90 1013.3
20201123091558 9 338 2.0 0.0 0.00 0.00 0.00 89 1013.4